Location: Kershaw
(34.5481°N, 80.5823°W)
Time: 08:00:11
(UTC+00:00)

Tiros 1 despin weight - Pass Details

Date: 06 October 2022
Orbit: 590 x 637 km, 48.2° (Epoch: 28 November)

Event Time Altitude Azimuth Distance (km) Brightness Sun altitude
Rises 01:36:39 0° 311° (NW) 2,889 ? -32.6°
Reaches altitude 10° 01:39:04 10° 319° (NW) 1,989 ? -33.0°
Enters shadow 01:40:34 20° 328° (NNW) 1,468 ? -33.3°
Maximum altitude 01:43:25 42° 30° (NNE) 892 - -33.9°
Drops below altitude 10° 01:47:49 10° 102° (ESE) 2,008 - -34.7°
Sets 01:50:15 0° 109° (ESE) 2,918 - -35.2°
